Location: Allen Lane School
(37.8198°N, 89.7382°W)
Time: 04:07:08
(UTC+00:00)

ISS - Visible Passes

Search period start: 07 December 2022 00:00
Search period end: 17 December 2022 00:00
Orbit: 414 x 420 km, 51.6° (Epoch: 07 December)

Date Brightness Start Highest point End Pass type
(mag) Time Alt. Az. Time Alt. Az. Time Alt. Az.
07 Dec -3.7 23:04:52 10° NW 23:08:11 61° NE 23:11:29 10° ESE visible
08 Dec -0.5 00:43:09 10° WSW 00:44:33 12° SW 00:45:57 10° SSW visible
08 Dec -1.1 23:53:54 10° WNW 23:56:32 22° SW 23:59:10 10° S visible
09 Dec -2.2 23:05:17 10° WNW 23:08:27 40° SW 23:11:35 10° SSE visible
11 Dec -0.2 23:06:48 10° W 23:08:25 13° SW 23:10:01 10° SSW visible
14 Dec -0.4 12:34:56 10° SSE 12:36:58 15° SE 12:39:00 10° E visible
16 Dec -2.5 12:33:33 10° SSW 12:36:47 47° SE 12:40:01 10° ENE visible
